Regional Weather Roundup
Issued by NWS Wakefield, VA

Home | Current Version | Previous Version | Graphics & Text | Print | Product List | Glossary Off
Versions: 1 2 3 4 5 6 7 8 9 10 11 12 13 14 15 16 17 18 19 20 21 22 23 24 25 26 27 28 29 30 31 32 33 34 35 36 37 38 39 40 41 42 43 44 45 46 47 48 49 50

000
ASUS41 KAKQ 221610
RWRAKQ

REGIONAL WEATHER ROUNDUP
NATIONAL WEATHER SERVICE WAKEFIELD VA
1200 PM EDT TUE JUL 22 2014

Note: "fair" indicates few or no clouds below 12,000 feet with no
significant weather and/or obstructions to visibility. * = Denotes
station may not report precipitation (e.g., rain,snow,etc.),
thunder or fog.

VAZ042-051-052>054-056-221700-
NORTHERN VIRGINIA

CITY           SKY/WX    TMP DP  RH WIND       PRES   REMARKS
WASH NATIONAL  PTSUNNY   84  68  58 S8        30.17F
DULLES         PTSUNNY   79  69  71 S6        30.17F
FORT BELVOIR   DRIZZLE   81  71  70 S5        30.18F
QUANTICO       PTSUNNY   80  69  69 SW9       30.19S
FREDERICKSBRG* PTSUNNY   81  70  68 CALM      30.17F
STAFFORD*      CLOUDY    79  75  86 S5        30.22F
WARRENTON      CLOUDY    82  76  83 SE9       30.18S
CULPEPER*      PTSUNNY  N/A N/A N/A SE3       30.18F
MANASSAS*      CLOUDY    81  75  83 S5        30.18F
LEESBURG*      PTSUNNY   81  72  74 S8        30.19F
WINCHESTER     MOSUNNY   81  68  65 SE7       30.17F
$$

VAZ048-049-060>072-079>083-221700-
CENTRAL AND SOUTH CENTRAL VIRGINIA...AND NORTH CENTRAL NORTH CAROLINA

CITY           SKY/WX    TMP DP  RH WIND       PRES   REMARKS
RICHMOND       CLOUDY    86  67  52 NE5       30.17F
CHESTERFIELD*  PTSUNNY   82  63  51 SE3       30.19F
HANOVER        CLOUDY    83  68  60 NE6       30.19F
TAPPAHANNOCK*  MOSUNNY   84  59  41 CALM      30.18F
CHARLOTTSVILLE PTSUNNY   81  69  67 CALM      30.18F
ORANGE*        PTSUNNY   81  70  69 E3        30.19F
LOUISA*        CLOUDY    79  72  78 SE7       30.18F
FARMVILLE*     MOSUNNY   82  68  61 E3        30.16F
SOUTH HILL*    PTSUNNY   82  72  69 CALM      30.23S
ROANOKE RAPIDS CLOUDY    82  72  69 NE6       30.16F
RALEIGH        PTSUNNY   81  71  71 E8        30.17F
$$

VAZ088>098-221700-
SOUTHEAST VIRGINIA

CITY           SKY/WX    TMP DP  RH WIND       PRES   REMARKS
NORFOLK        MOSUNNY   81  71  71 NE8       30.17S
VIRGINIA BEACH PTSUNNY   79  71  76 E10       30.17S
NORFOLK NAVAL  PTSUNNY   82  72  71 NE12      30.19S
WEST POINT*    MOSUNNY   86  66  51 SE3       30.19S
NEWPORT NEWS   MOSUNNY   85  71  63 E8        30.18S
LANGLEY AFB    MOSUNNY   82  71  70 E10       30.17F
FORT EUSTIS    PTSUNNY   83  71  67 E5        30.16S
WILLIAMSBURG*  MOSUNNY   88  70  55 SE7       30.18F
FRANKLIN*      PTSUNNY   82  70  65 NE7       30.17S
WAKEFIELD      PTSUNNY   85  70  60 VRB3      30.17F
$$

VAZ020-022-025-037-045-221700-
WESTERN AND SOUTHWEST VIRGINIA

CITY           SKY/WX    TMP DP  RH WIND       PRES   REMARKS
STAUNTON*      PTSUNNY   81  67  63 SE3       30.21F
HOT SPRINGS VA PTSUNNY   68  61  78 CALM      30.33F
LYNCHBURG      CLOUDY    81  70  69 CALM      30.20F
DANVILLE       PTSUNNY   81  68  64 NE6       30.18F
MARTINSVILLE   PTSUNNY   81  68  65 CALM      30.22S
ROANOKE        PTSUNNY   81  67  62 SE6       30.21F
BLACKSBURG     PTSUNNY   77  70  78 SE6       30.26F
DUBLIN*        CLOUDY    78  68  69 CALM      30.25S
MARION*        CLOUDY    76  67  73 E6        30.27F
HILLSVILLE*    CLOUDY    73  64  73 S5        30.27F
RICHLANDS*     SUNNY     82  65  58 E3        30.24F
WISE*          PTSUNNY   81  63  54 SW3       30.24F
ABINGDON*      PTSUNNY   82  65  57 S3        30.21F
$$

MDZ021>025-VAZ099-100-221700-
SOUTHERN MARYLAND AND THE DELMARVA PENINSULA

CITY           SKY/WX    TMP DP  RH WIND       PRES   REMARKS
PATUXENT RIVER PTSUNNY   79  68  69 SE9       30.18F
BAY BRIDGE APT   N/A     81  64  57 S8        30.18S
LEONARDTOWN    CLOUDY    79  64  61 NE7       30.19F
DOVER          MOSUNNY   82  66  59 E7        30.16F
GEORGETOWN     SUNNY     82  65  56 SE9       30.18F
EASTON         SUNNY     84  66  54 SE7       30.21F
CAMBRIDGE      MOSUNNY   82  61  47 SE7       30.17F
SALISBURY      NOT AVBL
OCEAN CITY     MOSUNNY   76  68  76 SE5       30.19F
WALLOPS ISLAND MOSUNNY   80  66  62 E7        30.19F
ACCOMACK*        N/A     81  61  50 E8        30.18F
$$

NCZ012>017-030>032-221700-
EASTERN NORTH CAROLINA

CITY           SKY/WX    TMP DP  RH WIND       PRES   REMARKS
ELIZABETH CITY CLOUDY    81  73  76 E8        30.16F
AHOSKIE*       MOSUNNY   81  71  71 NE3       30.16F
EDENTON*       PTSUNNY   82  74  77 E9G16     30.15F
CURRITUCK*     PTSUNNY   83  70  64 E8        30.18S
KILL DEVIL HLS PTSUNNY   81  74  80 E6        30.15S
MANTEO         NOT AVBL
CAPE HATTERAS  PTSUNNY   83  76  79 S8        30.16S
GOLDSBORO      MOSUNNY   81  77  89 NE7       30.13S
WASHINGTON     MOSUNNY   82  74  77 E3        30.14F
GREENVILLE     PTSUNNY   82  73  74 E7        30.15F
NEW BERN       PTSUNNY   86  73  65 CALM      30.14F
WILMINGTON     PTSUNNY   80  74  81 SE6       30.12S
$$

VAZ048-221700-
ELSEWHERE

CITY           SKY/WX    TMP DP  RH WIND       PRES   REMARKS
HARRISBURG PA  CLOUDY    81  70  69 W5        30.15F
BALTIMORE      PTSUNNY   80  69  69 VRB3      30.16F
ANNAPOLIS      MOSUNNY   80  68  66 SE13      30.17F
ANDREWS AFB    PTSUNNY   81  70  68 SE9       30.18F
WILMINGTON DE  PTSUNNY   83  70  64 S10       30.17F
PHILADELPHIA   MOSUNNY   83  65  54 SW8       30.16F
WILDWOOD NJ*   SUNNY     79  61  53 SE8       30.19F
ATLANTIC CITY  SUNNY     81  64  56 S8        30.17F
HENDERSON NC   CLOUDY    80  67  63 E7        30.18F
GREENSBORO     CLOUDY    77  70  79 E7        30.19S
ROCKY MOUNT    PTSUNNY   84  73  69 N6        30.15F
FAYETTEVILLE   PTSUNNY   83  73  72 N6        30.14F
CHARLOTTE      CLOUDY    77  70  79 VRB3      30.18S
$$

VAZ100-221700-
MARINE

STATION/POSITION TIME  TEMP    WIND        PRES    WAVE   SWELL
                       AIR SEA DIR/SP/G            HT/PER HT/PER
                 (UTC) (F)     (DEG/KT/KT) (MB)    (FT/S) (FT/S)
44066 TX TWR #4  1600   72 74  220/  6/  8 1021.8F   2/ 7   2/ 7
CAPE MAY NJ      1600   76 75  170/  5/  7 1022.0S
LEWES DE         1600   77 71  150/  6/  7 1021.8F
15NM E FENWICK I 1600   74 76              1022.4F   2/ 6
OCEAN-CITY-INLET 1600   74 72  100/  5/  7 1022.2F
WACHAPREAGUE VA  1600   76 79   80/  7/ 12 1022.0S
THOMAS POINT MD  1600   77 79  190/  8/ 10 1022.3F
GOOSES REEF MD   1600   77     190/  4/  4 1022.5F
COVE POINT MD    1600   77     170/  7/  9 1021.9F
SOLOMONS ISLAND  1600      81                N/A
BISHOPS HEAD MD  1600   77 79  140/  3/  4 1021.8F
PINEY POINT MD   1600          160/  9/ 11   N/A
POTOMAC MD       1600   77     150/  6/ 10 1021.4F
CAMBRIDGE MD     1600   80 80   90/  7/  8 1021.7S
LEWISETTA VA     1600   77 80  100/ 10/ 11 1021.6F
RAPPAHANNOCK LGT 1600           90/  6/  8 1022.4F
YORK RVR RNG VA  1600   78     110/  8/  9 1021.5F
YORKTOWN VA      1600   77 80   80/  9/ 10 1021.8F
JAMESTOWN VA     1600   78     140/  6/ 10   N/A
DOMINION TERM VA 1600   77      60/ 11/ 14 1022.1S
KIPTOPEKE VA     1600      79   90/  9/ 12   N/A
CHES BAY BRIDGE  1600   75 78   60/  9/ 10 1021.4S
CAPE HENRY VA    1600   76      90/  9/ 10 1020.9R
WILLOUBY STN VA  1600           80/ 10/ 12 1021.3S
S CRANEY ISL VA  1600           20/  8/ 10 1021.7F
CAPE HENRY BUOY  1600      76                N/A     2/ 8
1ST LANDING BUOY 1600   76      70/  6/  8 1021.7R
CAPE CHARLES BUO 1600      75                N/A     2/ 8
OFFSHORE WE BUOY 1600      76                N/A     3/ 6
64NM E OF VA BCH 1600   77 78   70/ 10/ 12 1021.3R   3/ 8   2/ 8
DUCK PIER NC     1600   78 74   80/  9/ 10 1020.9R
44056 DUCK FRF   1600                        N/A     3/ 8
OREGON INLET NC  1600   79 77   80/  5/  8 1021.2F
HATTERAS NC      1600   80 81  150/  9/ 11 1021.7F
DIAMOND SHLS NC  1600          VRB 14/ 16  1021.4R   4/ 8   2/ 8
CAPE LOOKOUT NC  1500   78     150/ 13/ 13 1020.7R
$$


USA.gov is the U.S. government's official web portal to all federal, state and local government web resources and services.